www.pogodaiklimat.ru

Погода и климат >> Архив погоды >> Мадагаскар >> Анталаха


ПОГОДА в Анталахе

  • Прогноз погоды в Анталахе
  • Монитор погоды в Анталахе

АРХИВ ПОГОДЫ в Анталахе

Время (UTC), дата Ветер
(напр.,м/с)
 
Видим.   Явления Облачность Т
(С)
Тd
(С)
f
(%)
Тe
(С)
Тes
(С)
Комфортность P
(гПа)
Po
(гПа)
Тmin
(С)
Tmax
(С)
R
(мм)
R24
(мм)
S
(см)
12 12.08 Ю 6 40 км {дождь} 4/4 600 м
[Cu med, cong]
+24.3 +20.2 78 +30 +31 очень
душно
1017.4 1007.4 0.6
15 12.08 Ю 2 40 км 3/3 600 м
[Cu med, cong]
+22.2 +19.9 87 +28 +28 душно 1018.6 1008.6 +25.5
03 13.08 Ю 5 30 км {дождь} 5/5 500 м
[Cu med, cong]
+19.9 +19.2 96 +23 +23 комфорт 1019.3 1009.3 1
06 13.08 Ю 6 30 км {ливн. осадки, дождь} 5/5 500 м
[Cu med, cong]
+24.4 +22.1 87 +32 +33 очень
душно
1020.7 1010.7 +19.7 +25.5 2
09 13.08 ЮВ 6 40 км 5/5 600 м
[Cu med, cong]
+25.8 +21.9 79 +33 +36 очень
душно
1018.7 1008.7
12 13.08 Ю 7 40 км 4/4 600 м
[Cu med, cong]
+25.3 +22.0 82 +33 +34 очень
душно
1017.6 1007.6
15 13.08 Ю 5 35 км 4/4 600 м
[Cu med, cong]
+22.1 +20.0 88 +28 +28 душно 1018.8 1008.8 +26.1
03 14.08 Ю 4 25 км осадки на расстоянии 6/6 500 м
[Cu Sc]
+20.2 +19.7 97 +24 +24 комфорт 1019.3 1009.3 2
06 14.08 ЮЗ 4 35 км {дождь} 5/5 500 м
[Cu Sc]
+23.7 +21.6 88 +30 +33 очень
душно
1021.0 1011.0 +20.1 +26.1 2
09 14.08 Ю 6 20 км осадки на расстоянии 8/8 500 м
[Cu Sc]
+22.6 +21.5 94 +30 +31 очень
душно
1019.8 1009.8 5
12 14.08 Ю 4 40 км {дождь} 5/5 600 м
[Cu Sc]
+25.9 +21.3 76 +33 +35 очень
душно
1018.1 1008.1 5
15 14.08 Ю 3 40 км 5/5 600 м
[Cu Sc Ac trans]
+22.8 +20.6 87 +30 +30 очень
душно
1019.5 1009.5 +26.0
03 15.08 ЮЗ 5 40 км 5/5 600 м
[Cu Sc]
+20.7 +19.3 92 +25 +25 комфорт 1019.6 1009.6
06 15.08 Ю 3 40 км 5/5 600 м
[Cu med, cong]
+25.4 +22.7 85 +33 +37 очень
душно
1020.7 1010.7 +20.1 +26.0 5
03 16.08 ЮЗ 4 40 км 4/4 600 м
[Cu med, cong]
+19.9 +17.5 86 +23 +23 комфорт 1019.8 1009.8
06 16.08 Ю 6 40 км 5/5 600 м
[Cu med, cong]
+24.5 +18.7 70 +29 +31 душно 1021.1 1011.1 +19.8 +26.1
09 16.08 Ю 8 40 км 5/5
[Cu med, cong]
+26.7 +17.7 58 +31 +32 душно 1019.2 1009.2
12 16.08 Ю 7 40 км 4/4 600 м
[Cu med, cong]
+26.4 +18.3 61 +31 +32 душно 1017.2 1007.2
15 16.08 ЮЗ 3 40 км 3/3 600 м
[Cu Sc]
+21.8 +17.6 77 +26 +26 душно 1018.2 1008.2 +27.3
03 17.08 З 6 40 км 5/5 600 м
[Cu Sc]
+18.2 +15.8 86 +18 +18 1016.7 1006.7
06 17.08 Ю 5 40 км 5/5 600 м
[Cu Sc]
+24.1 +19.8 77 +29 +32 душно 1018.2 1008.2 +18.1 +27.3
03 18.08 ЮЗ 6 40 км 3/3 600 м
[Cu med, cong]
+18.9 +16.5 86 +20 +20 1015.9 1005.9
06 18.08 Ю 4 40 км 3/3 600 м
[Cu med, cong]
+24.1 +23.2 95 +32 +37 очень
душно
1017.6 1007.6 +18.9 +27.4
03 19.08 ЮЗ 4 40 км 3/3 600 м
[Cu med, cong Ci fib]
+19.8 +17.4 86 +22 +22 комфорт 1017.5 1007.5
06 19.08 Ю 3 40 км 5/5 600 м
[Cu Sc Ci fib]
+24.7 +19.7 74 +30 +34 очень
душно
1018.9 1008.9 +19.6 +26.7
09 19.08 Ю 3 40 км 8/8 600 м
[Cu Sc]
+26.7 +19.8 66 +33 +35 очень
душно
1017.5 1007.5

 

Местоположение метеостанции Анталаха (Мадагаскар): широта -14.88 долгота 50.25 высота над уровнем моря 88 м.

В архиве по умолчанию представлена погода в Анталахе за последнюю неделю. Архивные данные за месяц целиком и за предыдущие месяцы, начиная с января 2011 года, Вы можете получить, выбрав интересующий диапазон дат из раскрывающегося списка и нажав кнопку "Ввод!".


*Определитесь, кто Вы:
робот инопланетянин человек

Внимание! Время в таблицах - всемирное. Для получения местного времени необходимо прибавить поправку, которая равна 3 ч.

Смотрите также архив погоды в соседних городах и на ближайших метеорологических станциях:

Погода в Самбаве (Мадагаскар) (67 км)
Погода в Анцухихи (Мадагаскар) (244 км)
Погода на Нуси Бураха (Мадагаскар) (249 км)
Погода в Аэропорту Fascene (Мадагаскар) (272 км)
Погода в Анциранане (Мадагаскар) (300 км)
Погода в Амбоайтзилаозане (Мадагаскар) (358 км)
Погода в Туамасине (Мадагаскар) (371 км)
Погода в Махадзанге (Мадагаскар) (427 км)
Погода в Серже-Фролоу (Реюньон) (467 км)
Погода на Острове Глорьёз (Реюньон) (500 км)

Пояснения к столбцам:

Ветер - указаны скорость ветра в м/с - средняя за 10 мин, порывы в срок и между сроками (в фигурных скобках) и направление, откуда дует ветер: С - северный, СВ - северо-восточный, В - восточный, ЮВ - юго-восточный, Ю - южный, ЮЗ - юго-западный, З - западный, СЗ - северо-западный.
Видимость - горизонтальная дальность видимости в метрах или километрах. При видимости от 1 до 10 км при отсутствии осадков обычно наблюдается дымка, при ухудшении видимости до 1 км и менее - туман. В сухую погоду видимость может ухудшаться дымом, пылью или мглою.
Явления - указаны атмосферные явления, наблюдавшиеся в срок или в последний час перед сроком; фигурными скобками обозначены явления, наблюдавшиеся между сроками (за 1-3 часа до срока); квадратными скобками обозначены град или гололедные отложения с указанием их диаметра в мм.
Облачность - указаны через наклонную черту общая и нижняя облачность в баллах и высота нижней границы облаков в метрах; квадратными скобками обозначены формы облаков: Ci - перистые, Cs - перисто-слоистые, Cc - перисто-кучевые, Ac - высококучевые, As - высокослоистые, Sc - слоисто-кучевые, Ns - слоисто-дождевые, Cu - кучевые, Cb - кучево-дождевые. Подробнее классификацию облаков см. в Атласе облаков (PDF).
T - Температура воздуха - температура, измеренная на высоте 2 м над землей.
Td - Температура точки росы - температура, при понижении до которой содержащийся в воздухе водяной пар достигнет насыщения.
f - Относительная влажность воздуха - влажноcть воздуха, измеренная на высоте 2 м над землей.
Te - Эффективная температура - температура, которую ощущает одетый по сезону человек в тени. Характеристика душности погоды. При расчете учитывается влияние влажности воздуха и скорости ветра на теплоощущения человека.
Tes - Эффективная температура на солнце - температура, которую ощущает человек, с поправкой на солнечный нагрев. Характеристика знойности погоды. Зависит от высоты солнца над горизонтом, облачности и скорости ветра. Ночью, в пасмурную погоду, а также при ветре 12 м/с и более поправка равна нулю.
P - Атмосферное давление - приведенное к уровню моря атмосферное давление.
Po - Атмосферное давление - измеренное на уровне метеостанции атмосферное давление.
Tmin - Минимальная температура - минимум температуры воздуха на высоте 2 м над землей.
Tmax - Максимальная температура - максимум температуры воздуха на высоте 2 м над землей.
R - Количество осадков - Количество выпавших осадков за период времени, мм. При наведении курсора мыши на число - период времени, за который выпало указанное количество осадков.
R24 - Количество осадков - Количество выпавших осадков за 24 часа, мм.
S - Снежный покров - Высота снежного покрова, см. При наведении курсора мыши на число - состояние снежного покрова и степень покрытия местности в баллах.